Location: Houston
(29.7630°N, 95.3630°W)
Time: 15:30:08
(UTC-05:00)

ISS - All Passes

Search period start: 28 July 2014 00:00
Search period end: 07 August 2014 00:00
Orbit: 411 x 420 km, 51.6° (Epoch: 28 July)

Date Brightness Start Highest point End Pass type
(mag) Time Alt. Az. Time Alt. Az. Time Alt. Az.
28 Jul - 00:14:13 10° WSW 00:17:22 40° NW 00:20:33 10° NNE night (unlit)
28 Jul - 06:48:42 10° N 06:50:25 13° NE 06:52:07 10° ENE daylight
28 Jul - 08:24:04 10° NW 08:27:20 49° SW 08:30:34 10° SSE daylight
28 Jul - 23:25:14 10° SW 23:28:33 86° NW 23:31:54 10° NE night (unlit)
29 Jul - 07:35:13 10° NW 07:38:34 75° NE 07:41:54 10° SE daylight
29 Jul - 22:36:40 10° SSW 22:39:48 42° SE 22:42:59 10° ENE night (unlit)
30 Jul - 00:14:45 10° WNW 00:16:40 14° NW 00:18:36 10° N night (unlit)
30 Jul - 06:46:36 10° NNW 06:49:44 35° NE 06:52:51 10° ESE daylight
30 Jul - 08:24:26 10° W 08:26:10 14° SW 08:27:54 10° SSW daylight
30 Jul - 21:48:36 10° S 21:51:07 20° SE 21:53:39 10° ENE night (unlit)
30 Jul - 23:24:55 10° W 23:27:42 24° NW 23:30:30 10° NNE night (unlit)
31 Jul - 05:58:16 10° N 06:00:49 20° NE 06:03:22 10° E visible
31 Jul - 07:34:37 10° WNW 07:37:30 27° SW 07:40:23 10° S daylight
31 Jul - 22:35:37 10° WSW 22:38:49 46° NW 22:42:02 10° NNE night (unlit)
01 Aug - 05:10:26 10° N 05:11:49 12° NE 05:13:12 10° ENE visible
01 Aug - 06:45:29 10° NW 06:48:47 58° SW 06:52:04 10° SSE daylight
01 Aug - 21:46:42 10° SW 21:50:00 81° SE 21:53:20 10° NE visible
02 Aug - 05:56:39 10° NW 06:00:00 64° NE 06:03:19 10° SE visible
02 Aug - 20:58:11 10° SSW 21:01:15 36° SE 21:04:20 10° ENE visible
02 Aug - 22:35:54 10° WNW 22:38:02 16° NW 22:40:11 10° N visible
03 Aug - 05:08:05 10° NNW 05:11:07 31° NE 05:14:09 10° ESE visible
03 Aug - 06:45:32 10° W 06:47:36 16° SW 06:49:40 10° SSW daylight
03 Aug - 20:10:14 10° S 20:12:33 18° SE 20:14:51 10° E daylight
03 Aug - 21:46:11 10° WSW 21:49:04 27° NW 21:51:59 10° NNE visible
04 Aug - 04:19:47 10° N 04:22:10 18° NE 04:24:33 10° E visible
04 Aug - 05:55:54 10° WNW 05:58:55 31° SW 06:01:54 10° SSE visible
04 Aug - 20:56:56 10° WSW 21:00:11 53° NW 21:03:27 10° NE visible
05 Aug - 03:32:12 10° NNE 03:33:08 11° NNE 03:34:04 10° NE visible
05 Aug - 05:06:49 10° NW 05:10:09 68° SW 05:13:29 10° SE visible
05 Aug - 20:08:05 10° SW 20:11:22 69° SE 20:14:40 10° NE daylight
05 Aug - 21:47:37 10° NW 21:48:23 11° NNW 21:49:09 10° NNW visible
06 Aug - 04:18:02 10° NW 04:21:20 55° NE 04:24:37 10° ESE night (unlit)
06 Aug - 19:19:39 10° SSW 19:22:36 31° SE 19:25:34 10° ENE daylight
06 Aug - 20:57:01 10° W 20:59:20 18° NW 21:01:40 10° N visible
